W1JCN Weather Reports


Display with metric or nautical units.
time (UTC)temp
F
wind
direction
speed
MPH
gust
MPH
rain 1hr
in
rain 24hr
in
rain mn
in
humidity
%
barometer
mb
20260903205317 72 161 0.0 5.0 0.00 0.02 0.02 86 1010.8
20260903204417 72 162 1.0 5.0 0.00 0.02 0.02 87 1010.7
20260903203517 72 162 0.0 4.0 0.00 0.02 0.02 88 1010.7
20260903202617 71 164 0.0 5.0 0.00 0.02 0.02 89 1010.8
20260903195917 70 167 0.0 4.0 0.00 0.02 0.02 89 1010.9
20260903195017 70 170 0.0 6.0 0.00 0.02 0.02 89 1011.1
20260903194117 70 171 0.0 5.0 0.00 0.02 0.02 89 1011.2
20260903193216 70 171 0.0 6.0 0.00 0.02 0.02 89 1011.1
20260903192317 70 163 0.0 2.0 0.00 0.02 0.02 90 1011.3
20260903191417 70 164 0.0 1.0 0.00 0.02 0.02 90 1011.3
20260903185617 69 164 0.0 4.0 0.00 0.02 0.02 92 1011.2
20260903184717 68 164 0.0 4.0 0.00 0.02 0.02 92 1011.2
20260903183817 68 164 0.0 1.0 0.00 0.02 0.02 93 1011.4
20260903182917 67 0 0.0 0.0 0.00 0.02 0.02 93 1011.6
20260903182017 67 0 0.0 0.0 0.00 0.02 0.02 94 1011.8
20260903181117 66 0 0.0 0.0 0.00 0.02 0.02 94 1011.7
20260903180216 66 0 0.0 0.0 0.00 0.02 0.02 94 1011.8
20260903175317 66 0 0.0 0.0 0.00 0.02 0.02 94 1011.8
20260903174416 66 164 0.0 1.0 0.00 0.02 0.02 94 1011.9
20260903173516 66 164 0.0 1.0 0.00 0.02 0.02 94 1011.9
20260903172616 65 0 0.0 0.0 0.00 0.02 0.02 94 1012.0
20260903171716 65 0 0.0 0.0 0.00 0.02 0.02 95 1012.1
20260903170816 65 0 0.0 0.0 0.00 0.02 0.02 95 1012.2
20260903165916 65 0 0.0 0.0 0.00 0.02 0.02 94 1012.2
20260903165017 64 0 0.0 0.0 0.00 0.02 0.02 95 1012.2
20260903164116 64 0 0.0 0.0 0.00 0.02 0.02 94 1012.1
20260903162316 64 0 0.0 0.0 0.00 0.02 0.02 95 1012.1
20260903161416 64 0 0.0 0.0 0.00 0.02 0.02 95 1012.3
20260903160516 63 0 0.0 0.0 0.00 0.02 0.02 95 1012.3
20260903155616 63 0 0.0 0.0 0.00 0.02 0.02 95 1012.2
20260903153816 63 0 0.0 0.0 0.00 0.02 0.02 95 1012.4
20260903152916 62 0 0.0 0.0 0.00 0.02 0.02 95 1012.5
20260903152016 62 0 0.0 0.0 0.00 0.02 0.02 95 1012.6
20260903151116 62 0 0.0 0.0 0.00 0.02 0.02 95 1012.7
20260903145316 62 0 0.0 0.0 0.00 0.02 0.02 95 1012.8
20260903144416 61 0 0.0 0.0 0.00 0.02 0.02 94 1012.9
20260903143516 61 164 0.0 1.0 0.00 0.02 0.02 94 1013.0
20260903142616 61 0 0.0 0.0 0.00 0.02 0.02 94 1012.9
20260903141716 61 164 0.0 1.0 0.00 0.02 0.02 95 1012.9
20260903134213 61 165 0.0 3.0 0.00 0.02 0.02 95 1013.0
20260903133313 61 0 0.0 0.0 0.00 0.02 0.02 94 1013.0
20260903132413 61 166 0.0 3.0 0.00 0.02 0.02 95 1012.8
20260903130612 60 161 0.0 5.0 0.00 0.02 0.02 95 1012.9
20260903125713 60 168 0.0 5.0 0.00 0.02 0.02 95 1012.9
20260903124813 60 181 0.0 3.0 0.00 0.02 0.02 95 1013.0
20260903123913 60 182 0.0 3.0 0.00 0.02 0.02 95 1013.1
20260903122113 59 0 0.0 0.0 0.00 0.02 0.02 95 1013.0
20260903121213 59 182 0.0 1.0 0.00 0.02 0.02 95 1013.2
20260903120312 59 182 0.0 3.0 0.00 0.02 0.02 95 1013.2
20260903114513 58 182 0.0 2.0 0.00 0.02 0.02 94 1013.4
20260903113613 58 182 0.0 2.0 0.00 0.02 0.02 94 1013.4
20260903112712 58 182 0.0 2.0 0.00 0.02 0.02 94 1013.5
20260903110913 58 182 0.0 1.0 0.00 0.02 0.02 94 1013.6
20260903110012 58 182 0.0 2.0 0.00 0.02 0.02 94 1013.5
20260903105112 58 182 0.0 1.0 0.00 0.02 0.02 94 1013.5
20260903104212 58 182 0.0 1.0 0.00 0.02 0.02 94 1013.4
20260903103312 58 182 0.0 2.0 0.00 0.02 0.02 94 1013.2
20260903101512 58 182 0.0 2.0 0.00 0.02 0.02 94 1013.4
20260903100612 58 182 0.0 2.0 0.00 0.02 0.02 94 1013.5
20260903095712 57 182 0.0 1.0 0.00 0.02 0.02 94 1013.4
20260903094812 57 182 0.0 2.0 0.00 0.02 0.02 94 1013.4
20260903093912 57 182 0.0 2.0 0.00 0.02 0.02 94 1013.5
20260903093012 57 182 0.0 3.0 0.00 0.02 0.02 94 1013.4
20260903092112 57 182 0.0 5.0 0.00 0.02 0.02 94 1013.5
20260903091212 57 181 0.0 4.0 0.00 0.02 0.02 94 1013.5
20260903090312 57 174 0.0 2.0 0.00 0.02 0.02 94 1013.7
20260903085412 57 174 0.0 2.0 0.00 0.02 0.02 94 1013.7
20260903083612 57 174 0.0 2.0 0.00 0.02 0.02 94 1014.1
20260903082712 57 173 0.0 2.0 0.00 0.02 0.02 94 1014.0
20260903081812 57 0 0.0 0.0 0.00 0.02 0.02 94 1014.0
20260903080912 57 173 0.0 1.0 0.00 0.02 0.02 94 1014.1
20260903074212 57 173 0.0 2.0 0.00 0.02 0.02 94 1014.2
20260903072412 57 175 0.0 5.0 0.00 0.02 0.02 94 1014.3
20260903071512 57 193 0.0 3.0 0.00 0.02 0.02 93 1014.4
20260903070612 57 193 1.0 5.0 0.00 0.02 0.02 93 1014.5
20260903065712 57 193 0.0 5.0 0.01 0.02 0.02 93 1014.3
20260903063912 58 192 0.0 3.0 0.02 0.02 0.02 93 1014.0
20260903063012 58 200 0.0 2.0 0.02 0.02 0.02 93 1014.3
20260903062112 58 200 0.0 3.0 0.02 0.02 0.02 92 1014.4
20260903061212 58 201 1.0 4.0 0.02 0.02 0.02 92 1014.6
20260903060312 58 205 0.0 4.0 0.01 0.01 0.01 92 1014.9
20260903054512 59 206 1.0 4.0 0.00 0.00 0.00 91 1015.3
20260903053612 59 195 1.0 6.0 0.00 0.00 0.00 91 1015.5
20260903052712 60 191 1.0 6.0 0.00 0.00 0.00 90 1015.5
20260903051812 60 189 1.0 7.0 0.00 0.00 0.00 90 1015.6
20260903050912 60 167 1.0 6.0 0.00 0.00 0.00 89 1015.8
20260903050012 60 167 1.0 7.0 0.00 0.00 0.00 89 1015.9
20260903045112 60 155 2.0 11.0 0.00 0.00 0.00 89 1015.6
20260903044212 60 164 2.0 6.0 0.00 0.00 0.00 89 1015.6
20260903043312 60 196 2.0 8.0 0.00 0.00 0.00 90 1015.7
20260903042412 60 181 2.0 11.0 0.00 0.00 0.00 90 1015.7
20260903041512 60 173 2.0 6.0 0.00 0.00 0.00 90 1015.9
20260903040612 60 170 1.0 7.0 0.00 0.00 0.00 90 1015.9
20260903035712 60 174 1.0 5.0 0.00 0.00 0.00 90 1016.0
20260903033912 60 197 1.0 9.0 0.00 0.00 0.00 90 1016.0
20260903033012 60 190 2.0 6.0 0.00 0.00 0.00 90 1016.1
20260903031211 60 190 1.0 6.0 0.00 0.00 0.00 91 1016.6
20260903030311 60 194 1.0 5.0 0.00 0.00 0.00 91 1016.5
20260903025411 60 197 1.0 5.0 0.00 0.00 0.00 91 1016.6
20260903024512 60 198 1.0 9.0 0.00 0.00 0.00 91 1016.9
20260903023611 60 204 2.0 6.0 0.00 0.00 0.00 91 1016.7
20260903022711 60 204 1.0 4.0 0.00 0.00 0.00 91 1016.8
20260903021811 60 191 1.0 4.0 0.00 0.00 0.00 91 1016.7
20260903020911 60 193 1.0 5.0 0.00 0.00 0.00 90 1016.9
20260903020011 60 192 1.0 6.0 0.00 0.00 0.00 90 1017.2
20260903015111 60 211 1.0 5.0 0.00 0.00 0.00 90 1017.2
20260903013311 60 179 0.0 4.0 0.00 0.00 0.00 89 1017.6
20260903012411 60 205 1.0 5.0 0.00 0.00 0.00 90 1017.5
20260903004811 61 210 0.0 5.0 0.00 0.00 0.00 88 1017.3
20260903003911 61 199 1.0 5.0 0.00 0.00 0.00 89 1017.3
20260903003011 61 196 1.0 6.0 0.00 0.00 0.00 87 1016.9
20260903002111 61 203 1.0 5.0 0.00 0.00 0.00 87 1016.9
20260903001211 61 199 2.0 8.0 0.00 0.00 0.00 88 1016.8
20260903000311 62 202 1.0 8.0 0.00 0.00 0.00 89 1016.9
20260902235411 62 203 1.0 5.0 0.00 0.00 0.00 89 1016.8
20260902234511 62 203 1.0 4.0 0.00 0.00 0.00 89 1016.8
20260902233611 62 204 0.0 5.0 0.00 0.00 0.00 89 1017.2
20260902232711 62 213 1.0 4.0 0.00 0.00 0.00 89 1017.3
20260902230911 63 177 0.0 6.0 0.00 0.00 0.00 89 1017.9
20260902230011 63 208 0.0 2.0 0.00 0.00 0.00 89 1018.1
20260902225111 63 209 0.0 2.0 0.00 0.00 0.00 89 1018.4
20260902224211 63 215 0.0 4.0 0.00 0.00 0.00 89 1018.6
20260902223311 63 224 1.0 5.0 0.00 0.00 0.00 89 1018.5
20260902222411 64 220 0.0 4.0 0.00 0.00 0.00 90 1018.6
20260902221511 64 209 0.0 4.0 0.00 0.00 0.00 90 1018.7
20260902220611 64 183 0.0 4.0 0.00 0.01 0.00 90 1018.8
20260902215711 64 0 0.0 0.0 0.00 0.01 0.00 90 1018.6
20260902214811 64 182 0.0 1.0 0.00 0.01 0.00 90 1018.6
20260902213911 64 182 0.0 2.0 0.00 0.01 0.00 90 1018.6
20260902213011 64 182 0.0 1.0 0.00 0.01 0.00 89 1018.6
20260902211211 64 182 0.0 3.0 0.00 0.01 0.00 88 1018.8
20260902210311 64 169 1.0 5.0 0.00 0.01 0.00 88 1018.7